• In Hungary
  • List of Countries
  • For 7 days
  • Water Temperature
  • Satellite Maps
  • Weather Map
  • News
  • Weather Widgets
  • user-avatar
    Login

    Hourly Weather Sutolka

    Today, 22 October, Monday

    Time Temperature Precipitation Wind Pressure Humidity
    00:00 +3°C° 0 mm 3 mps 745 mmHg 83%
    01:00 +3°C° 0 mm 2 mps 745 mmHg 83%
    02:00 +3°C° 0 mm 2 mps 745 mmHg 86%
    03:00 +3°C° 0 mm 2 mps 745 mmHg 87%
    04:00 +2°C° 0 mm 2 mps 745 mmHg 87%
    05:00 +2°C° 0 mm 2 mps 745 mmHg 88%
    06:00 +3°C° 0 mm 2 mps 745 mmHg 85%
    07:00 +3°C° 0 mm 2 mps 745 mmHg 83%
    08:00 +4°C° 0 mm 2 mps 745 mmHg 79%
    09:00 +5°C° 0 mm 2 mps 745 mmHg 74%
    10:00 +6°C° 0 mm 2 mps 744 mmHg 68%
    11:00 +8°C° 0 mm 2 mps 744 mmHg 63%
    12:00 +9°C° 0 mm 1 mps 744 mmHg 61%
    13:00 +10°C° 0 mm 1 mps 743 mmHg 59%
    14:00 +10°C° 0 mm 1 mps 743 mmHg 57%
    15:00 +9°C° 0 mm 1 mps 742 mmHg 61%
    16:00 +8°C° 0 mm 1 mps 742 mmHg 64%
    17:00 +8°C° 0 mm 1 mps 741 mmHg 68%
    18:00 +7°C° 0 mm 1 mps 741 mmHg 70%
    19:00 +7°C° 0 mm 1 mps 741 mmHg 71%
    20:00 +6°C° 0 mm 1 mps 740 mmHg 73%
    21:00 +6°C° 0 mm 1 mps 740 mmHg 73%
    22:00 +6°C° 0 mm 1 mps 739 mmHg 74%
    23:00 +5°C° 0 mm 2 mps 739 mmHg 74%

    Tomorrow, 23 October, Tuesday

    Time Temperature Precipitation Wind Pressure Humidity
    00:00 +5°C° 0 mm 2 mps 738 mmHg 75%
    01:00 +4°C° 0 mm 2 mps 738 mmHg 76%
    02:00 +4°C° 0 mm 2 mps 737 mmHg 76%
    03:00 +4°C° 0 mm 2 mps 736 mmHg 76%
    04:00 +3°C° 0 mm 2 mps 736 mmHg 76%
    05:00 +2°C° 0 mm 3 mps 735 mmHg 77%
    06:00 +3°C° 0 mm 3 mps 735 mmHg 75%
    07:00 +3°C° 0 mm 4 mps 735 mmHg 74%
    08:00 +3°C° 0 mm 4 mps 735 mmHg 72%
    09:00 +4°C° 0 mm 4 mps 734 mmHg 69%
    10:00 +6°C° 0 mm 5 mps 734 mmHg 66%
    11:00 +7°C° 0 mm 5 mps 733 mmHg 63%
    12:00 +7°C° 0 mm 5 mps 733 mmHg 64%
    13:00 +7°C° 0 mm 5 mps 732 mmHg 64%
    14:00 +7°C° 0 mm 6 mps 732 mmHg 64%
    15:00 +7°C° 0.1 mm 5 mps 731 mmHg 68%
    16:00 +6°C° 0.1 mm 5 mps 731 mmHg 73%
    17:00 +5°C° 0.1 mm 4 mps 730 mmHg 77%
    18:00 +5°C° 0 mm 4 mps 730 mmHg 79%
    19:00 +5°C° 0 mm 4 mps 729 mmHg 80%
    20:00 +5°C° 0 mm 4 mps 729 mmHg 82%
    21:00 +5°C° 0 mm 4 mps 728 mmHg 82%
    22:00 +5°C° 0 mm 4 mps 727 mmHg 83%
    23:00 +5°C° 0 mm 4 mps 727 mmHg 83%

    Day after tomorrow, 24 October, Wednesday

    Time Temperature Precipitation Wind Pressure Humidity
    00:00 +5°C° 0.1 mm 4 mps 726 mmHg 81%
    01:00 +3°C° 0.1 mm 5 mps 725 mmHg 80%
    02:00 +3°C° 0.1 mm 5 mps 724 mmHg 78%
    03:00 +3°C° 0.1 mm 5 mps 723 mmHg 78%
    04:00 +3°C° 0.1 mm 5 mps 723 mmHg 77%
    05:00 +3°C° 0.1 mm 5 mps 722 mmHg 76%
    06:00 +3°C° 0.1 mm 6 mps 721 mmHg 77%
    07:00 +3°C° 0.1 mm 6 mps 720 mmHg 77%
    08:00 +3°C° 0.1 mm 7 mps 720 mmHg 77%
    09:00 +4°C° 0.2 mm 7 mps 719 mmHg 78%
    10:00 +5°C° 0.2 mm 7 mps 719 mmHg 78%
    11:00 +5°C° 0.2 mm 8 mps 718 mmHg 79%
    12:00 +5°C° 0.2 mm 7 mps 718 mmHg 79%
    13:00 +6°C° 0.2 mm 7 mps 718 mmHg 79%
    14:00 +7°C° 0.2 mm 6 mps 717 mmHg 79%
    15:00 +7°C° 0.7 mm 6 mps 717 mmHg 81%
    16:00 +7°C° 0.7 mm 5 mps 717 mmHg 83%
    17:00 +6°C° 0.7 mm 5 mps 716 mmHg 85%
    18:00 +6°C° 0.7 mm 5 mps 716 mmHg 86%
    19:00 +6°C° 0.7 mm 5 mps 716 mmHg 88%
    20:00 +6°C° 0.7 mm 5 mps 716 mmHg 89%
    21:00 +6°C° 0.1 mm 4 mps 715 mmHg 90%
    22:00 +7°C° 0.1 mm 3 mps 715 mmHg 91%
    23:00 +5°C° 0.1 mm 3 mps 714 mmHg 93%

    25 October, Thursday

    Time Temperature Precipitation Wind Pressure Humidity
    00:00 +5°C° 0.7 mm 3 mps 714 mmHg 93%
    01:00 +6°C° 0.7 mm 4 mps 713 mmHg 94%
    02:00 +6°C° 0.7 mm 5 mps 712 mmHg 94%
    03:00 +4°C° 0.8 mm 6 mps 712 mmHg 90%
    04:00 +4°C° 0.8 mm 7 mps 711 mmHg 87%
    05:00 +4°C° 0.8 mm 7 mps 711 mmHg 83%
    06:00 +4°C° 0.2 mm 7 mps 710 mmHg 82%
    07:00 +3°C° 0.2 mm 7 mps 710 mmHg 81%
    08:00 +3°C° 0.2 mm 7 mps 710 mmHg 79%
    09:00 +3°C° 0.2 mm 7 mps 710 mmHg 80%
    10:00 +3°C° 0.2 mm 6 mps 710 mmHg 81%
    11:00 +4°C° 0.2 mm 6 mps 710 mmHg 82%
    12:00 +4°C° 0.4 mm 6 mps 710 mmHg 82%
    13:00 +4°C° 0.4 mm 7 mps 711 mmHg 81%
    14:00 +4°C° 0.4 mm 8 mps 711 mmHg 81%
    15:00 +2°C° 0.5 mm 9 mps 712 mmHg 81%
    16:00 +2°C° 0.5 mm 9 mps 713 mmHg 80%
    17:00 +1°C° 0.5 mm 9 mps 714 mmHg 79%
    18:00 +1°C° 0.4 mm 9 mps 715 mmHg 79%
    19:00 +1°C° 0.4 mm 9 mps 715 mmHg 79%
    20:00 +1°C° 0.4 mm 8 mps 716 mmHg 79%
    21:00 0°C° 0.1 mm 8 mps 717 mmHg 80%
    22:00 0°C° 0.1 mm 8 mps 717 mmHg 80%
    23:00 0°C° 0.1 mm 7 mps 718 mmHg 81%

    26 October, Friday

    Time Temperature Precipitation Wind Pressure Humidity
    00:00 0°C° 0.1 mm 7 mps 718 mmHg 81%
    01:00 0°C° 0.1 mm 7 mps 719 mmHg 82%
    02:00 0°C° 0.1 mm 7 mps 719 mmHg 83%
    03:00 0°C° 0.3 mm 7 mps 720 mmHg 83%
    04:00 -1°C° 0.3 mm 6 mps 720 mmHg 84%
    05:00 -1°C° 0.3 mm 6 mps 721 mmHg 85%
    06:00 -1°C° 0.1 mm 6 mps 722 mmHg 84%
    07:00 -1°C° 0.1 mm 6 mps 723 mmHg 83%
    08:00 -1°C° 0.1 mm 6 mps 723 mmHg 82%
    09:00 -1°C° 0.1 mm 6 mps 724 mmHg 79%
    10:00 -1°C° 0.1 mm 6 mps 725 mmHg 77%
    11:00 -1°C° 0.1 mm 6 mps 726 mmHg 74%
    12:00 +1°C° 0 mm 6 mps 726 mmHg 74%
    13:00 +1°C° 0 mm 6 mps 727 mmHg 73%
    14:00 +1°C° 0 mm 6 mps 728 mmHg 72%
    15:00 +1°C° 0 mm 6 mps 728 mmHg 74%
    16:00 +1°C° 0 mm 5 mps 729 mmHg 77%
    17:00 +1°C° 0 mm 5 mps 730 mmHg 79%
    18:00 0°C° 0 mm 5 mps 731 mmHg 80%
    19:00 0°C° 0 mm 5 mps 731 mmHg 80%
    20:00 0°C° 0 mm 5 mps 732 mmHg 81%
    21:00 0°C° 0 mm 5 mps 733 mmHg 80%
    22:00 0°C° 0 mm 4 mps 733 mmHg 80%
    23:00 0°C° 0 mm 4 mps 734 mmHg 80%

    27 October, Saturday

    Time Temperature Precipitation Wind Pressure Humidity
    00:00 0°C° 0 mm 4 mps 734 mmHg 81%
    01:00 0°C° 0 mm 4 mps 735 mmHg 83%
    02:00 0°C° 0 mm 4 mps 735 mmHg 84%
    03:00 -1°C° 0 mm 4 mps 736 mmHg 87%
    04:00 -1°C° 0 mm 4 mps 736 mmHg 89%
    05:00 -2°C° 0 mm 4 mps 737 mmHg 91%
    06:00 -1°C° 0 mm 4 mps 737 mmHg 89%
    07:00 -1°C° 0 mm 4 mps 737 mmHg 88%
    08:00 -1°C° 0 mm 5 mps 738 mmHg 86%
    09:00 +1°C° 0 mm 5 mps 738 mmHg 81%
    10:00 +2°C° 0 mm 5 mps 738 mmHg 77%
    11:00 +3°C° 0 mm 6 mps 738 mmHg 73%
    12:00 +4°C° 0 mm 6 mps 738 mmHg 71%
    13:00 +4°C° 0 mm 6 mps 737 mmHg 70%
    14:00 +4°C° 0 mm 6 mps 737 mmHg 69%
    15:00 +5°C° 0 mm 5 mps 737 mmHg 72%
    16:00 +5°C° 0 mm 5 mps 737 mmHg 75%
    17:00 +3°C° 0 mm 5 mps 737 mmHg 78%
    18:00 +3°C° 0 mm 5 mps 737 mmHg 78%
    19:00 +3°C° 0 mm 5 mps 737 mmHg 79%
    20:00 +3°C° 0 mm 5 mps 736 mmHg 80%
    21:00 +3°C° 0 mm 5 mps 736 mmHg 82%
    22:00 +3°C° 0 mm 5 mps 736 mmHg 85%
    23:00 +3°C° 0 mm 5 mps 736 mmHg 88%

    28 October, Sunday

    Time Temperature Precipitation Wind Pressure Humidity
    00:00 +5°C° 0 mm 5 mps 736 mmHg 90%
    01:00 +6°C° 0 mm 5 mps 736 mmHg 92%
    02:00 +6°C° 0 mm 5 mps 736 mmHg 94%
    03:00 +7°C° 0.3 mm 5 mps 736 mmHg 94%
    04:00 +7°C° 0.3 mm 5 mps 736 mmHg 94%
    05:00 +8°C° 0.3 mm 5 mps 735 mmHg 94%
    06:00 +8°C° 0 mm 5 mps 736 mmHg 94%
    07:00 +9°C° 0 mm 6 mps 736 mmHg 93%
    08:00 +9°C° 0 mm 6 mps 736 mmHg 92%
    09:00 +9°C° 0 mm 7 mps 736 mmHg 90%
    10:00 +10°C° 0 mm 7 mps 736 mmHg 88%
    11:00 +10°C° 0 mm 7 mps 736 mmHg 86%
    12:00 +10°C° 0 mm 7 mps 736 mmHg 84%
    13:00 +11°C° 0 mm 7 mps 736 mmHg 83%
    14:00 +11°C° 0 mm 7 mps 735 mmHg 81%
    15:00 +11°C° 0 mm 7 mps 735 mmHg 82%
    16:00 +11°C° 0 mm 6 mps 735 mmHg 82%
    17:00 +11°C° 0 mm 6 mps 735 mmHg 83%
    18:00 +11°C° 0 mm 6 mps 735 mmHg 82%
    19:00 +11°C° 0 mm 7 mps 735 mmHg 81%
    20:00 +11°C° 0 mm 7 mps 735 mmHg 80%
    21:00 +11°C° 0 mm 7 mps 735 mmHg 79%
    22:00 +11°C° 0 mm 7 mps 735 mmHg 77%
    23:00 +11°C° 0 mm 7 mps 735 mmHg 76%
    Show more